Location: Cazarilh
(42.9578°N, 0.5819°E)
Time: 01:25:19
(UTC+00:00)

USA 234 - Pass Details

Date: 11 December 2019
Orbit: 1100 x 1107 km, 123.0° (Epoch: 27 January)

Event Time Altitude Azimuth Distance (km) Brightness Sun altitude
Rises 05:45:40 0° 49° (NE) 3,931 6.6 -16.3°
Reaches altitude 10° 05:48:17 10° 42° (NE) 2,972 5.9 -15.8°
Maximum altitude 05:54:20 41° 335° (NNW) 1,549 3.7 -14.8°
Enters shadow 05:58:50 18° 275° (W) 2,443 4.5 -14.0°
